Location: WWIN Observatory
(34.8953°N, 91.9583°W)
Time: 16:46:16
(UTC-06:00)

Daily predictions for brighter satellites

Satellite Brightness Start Highest point End
(mag) Time Altitude Azimuth Time Altitude Azimuth Time Altitude Azimuth
Meteor 2-4 Rocket 4.4 18:18:06 10° NNE 18:22:50 29° ENE 18:27:28 10° SE
Cosmos 2219 Rocket 3.8 18:21:11 10° NNE 18:24:22 15° NE 18:27:32 10° E
Cosmos 2360 Rocket 2.2 18:19:27 10° NNW 18:25:04 62° ENE 18:30:40 10° SSE
Tiangong 2 3.2 18:22:52 10° W 18:25:28 25° SW 18:28:03 10° SSE
Cosmos 2219 3.4 18:24:05 10° S 18:29:40 55° ESE 18:35:16 10° NNE
Meteor 1-13 Rocket 4.3 18:24:16 10° N 18:29:47 59° E 18:35:24 10° SSE
Atlas Centaur 2 4.3 18:24:57 10° SSW 18:30:08 19° SSE 18:34:47 10° ESE
FREGAT/IRIS 3.5 18:29:13 10° SE 18:31:55 29° ENE 18:34:38 10° NNE
Cosmos 2227 Rocket 3.7 18:28:55 10° SE 18:32:00 15° E 18:35:06 10° ENE
Abrixas rocket 3.2 18:29:42 10° WSW 18:32:56 45° NNW 18:36:11 10° NE
Cosmos 1300 Rocket 3.5 18:32:03 10° S 18:36:27 84° E 18:40:54 10° N
Helios 1B rocket 4.3 18:36:01 10° ENE 18:37:22 11° E 18:38:42 10° ESE
Cosmos 1536 3.0 18:33:55 10° SSE 18:37:44 48° E 18:41:35 10° NNE
Cosmos 1340 3.5 18:47:53 10° NNW 18:51:36 55° W 18:55:17 10° S
Cosmos 1741 Rocket 4.2 18:51:18 10° SSW 18:56:31 75° WNW 19:01:44 10° NNE
Intercosmos 24 4.5 18:54:15 10° SSE 18:58:19 54° E 19:04:08 10° NNE
Resurs 01 Rocket 2.2 18:54:33 10° SE 18:58:34 35° ENE 19:02:34 10° N
NOAA 12 4.4 18:57:08 10° S 19:02:26 75° WSW 19:07:46 10° NNW
Meteor 1-11 Rocket 4.4 18:58:33 10° SSW 19:04:16 62° W 19:10:09 10° N
ATLAS 2A CENTAUR R/B 3.3 19:03:25 10° SW 19:05:41 20° S 19:10:06 11° SE
Cosmos 2327 Rocket 4.4 19:02:20 10° S 19:08:28 68° E 19:14:46 10° NNE
Resurs 1-3 4.0 19:04:54 10° SE 19:08:57 38° ENE 19:13:01 10° N
FENGYUN 3A 3.6 19:04:37 10° SSE 19:09:58 66° ENE 19:15:21 10° N
Cosmos 2333 Rocket 3.0 19:05:42 10° N 19:10:43 30° ENE 19:13:00 23° E
GPS 2-04 Rocket1 2.8 19:07:44 10° W 19:12:00 82° N 19:14:12 28° E
GEOS 3 Rocket 3.6 19:09:32 10° NE 19:14:46 65° ESE 19:20:00 10° SSW
Okean 1 Rocket 4.4 19:13:06 10° SSW 19:17:21 43° W 19:21:38 10° N
Genesis I 3.6 19:13:30 10° NW 19:17:24 65° WSW 19:21:16 10° SSE
Cosmos 1570 Rocket 4.1 19:13:42 10° NNW 19:18:57 79° WSW 19:24:10 10° S
SL-19 R/B 4.3 19:14:19 10° SSE 19:19:54 66° ENE 19:25:54 10° N
OTV 4 0.2 19:19:19 10° WSW 19:22:17 88° S 19:22:38 67° ENE
Cosmos 1892 Rocket 3.8 19:20:39 10° N 19:24:48 42° E 19:26:07 33° ESE
Cosmos 468 Rocket 4.3 19:22:07 10° N 19:27:07 42° ENE 19:28:51 32° ESE
Cosmos 1025 Rocket 3.0 19:22:44 10° N 19:27:08 85° W 19:31:32 10° S
Cosmos 2074 Rocket 4.2 19:22:04 10° S 19:28:18 76° W 19:34:37 10° N
Spot 2 Rocket 3.4 19:23:32 10° SSE 19:28:34 76° ENE 19:33:38 10° N
USA 229 DEB 3.8 19:22:56 10° NNW 19:30:05 69° ENE 19:35:24 20° SE
USA 229 3.8 19:23:02 10° NNW 19:30:11 68° ENE 19:35:26 20° SE
Cosmos 2082 3.8 19:28:23 10° S 19:33:51 50° ESE 19:37:59 18° NE
Cosmos 2184 Rocket 4.3 19:28:30 10° SSW 19:34:46 70° W 19:41:02 10° N
FengYun 1-2 T 4.4 19:30:16 10° S 19:35:44 74° WSW 19:41:15 10° NNW
Hubble Space Telescope 1.8 19:34:53 10° WSW 19:38:35 32° S 19:38:56 32° SSE
Spot 1 4.1 19:39:07 51° NE 19:39:07 51° NE 19:42:50 10° N
Meteor 2-13 Rocket 4.3 19:33:11 10° S 19:39:13 85° E 19:45:20 10° N
Cosmos 1544 Rocket 3.4 19:40:23 10° S 19:44:42 89° ESE 19:49:03 10° N
Envisat 4.2 19:47:02 25° NNE 19:47:02 25° NNE 19:49:41 10° N
Cosmos 1814 Rocket 4.2 19:43:13 10° N 19:47:53 48° ENE 19:47:53 48° ENE
Cosmos 405 Rocket 2.7 19:44:15 10° N 19:48:19 89° E 19:48:31 81° SSE
H-2A R/B 3.2 19:46:09 16° S 19:49:00 57° W 19:52:41 10° NNW
ALOS 3.4 19:44:42 10° S 19:49:07 43° W 19:53:34 10° NNW
CZ-2D R/B 3.2 19:49:35 76° SSW 19:49:48 82° WSW 19:53:38 10° NNW
Cosmos 2297 Rocket 2.0 19:49:20 10° S 19:54:55 67° ESE 19:56:25 47° NE
Nadezhda 3 Rocket 3.8 19:50:16 10° N 19:56:26 71° E 19:59:44 29° SSE
Cosmos 2237 Rocket 2.3 19:51:10 10° N 19:56:29 52° NE 19:56:29 52° NE
NOSS 0 Rocket 3.8 19:51:26 10° NNW 19:57:35 75° ENE 19:59:13 50° SE
NOSS 3-1 (C) 4.2 19:53:12 10° NNW 20:00:42 52° NE 20:02:16 46° E
Meteor 1-12 Rocket 4.2 19:54:46 10° S 20:00:46 84° E 20:06:43 10° N
COSMOS 2428 3.8 19:55:30 10° NW 20:00:50 42° WSW 20:06:09 10° S
Cosmos 2341 Rocket 3.9 19:56:46 10° S 20:03:05 75° E 20:09:28 10° N
Cosmos 2154 Rocket 4.1 19:57:54 10° S 20:04:14 79° W 20:10:36 10° N
H-2A R/B 3.9 20:01:57 10° SSW 20:42:29 - E 20:06:25 35° SE
Cosmos 2219 Rocket 2.3 20:03:16 10° NNW 20:08:50 69° WSW 20:10:46 41° S
Helios 1A 3.7 20:10:07 50° NW 20:10:07 50° NW 20:13:24 10° NNW
OAO 3 Rocket 3.8 20:07:15 10° WSW 20:11:09 51° SW 20:11:09 51° SW
Helios 1B rocket 3.4 20:08:54 10° N 20:12:52 46° WNW 20:16:49 10° SSW
Cosmos 1486 Rocket 4.2 20:08:51 10° SSW 20:14:09 69° WNW 20:16:55 29° N
Cosmos 2227 Rocket 2.6 20:09:52 10° SSW 20:15:26 60° WNW 20:20:35 12° NNE
Atlas Centaur 2 3.2 20:12:32 10° SW 20:18:27 38° S 20:18:27 38° S
Cosmos 1455 Rocket 4.3 20:18:07 10° SSW 20:22:14 40° W 20:26:22 10° N
BREEZE-M DEB (TANK) 3.5 20:21:22 10° WNW 20:24:58 69° SW 20:25:26 66° S
SL-16 R/B 3.9 20:27:12 10° N 20:29:17 22° N 20:29:17 22° N
Resurs 01 Rocket 4.3 20:32:16 10° SW 20:35:06 17° W 20:37:56 10° NW
BREEZE-M DEB (TANK) 4.5 20:30:41 10° NW 20:35:16 89° SW 20:36:28 69° SE
Cosmos 2333 Rocket 3.6 20:49:48 10° NW 20:54:55 34° WSW 20:55:05 34° WSW
ATLAS 3B CENTAUR R/B 4.4 20:45:23 10° WSW 21:09:40 55° S 21:09:41 55° S
